Location: ?????
(38.3715°N, 23.0573°E)
Time: 10:28:38
(UTC+00:00)

Cosmos 1371 Rocket - Pass Details

Date: 03 August 2024
Orbit: 752 x 786 km, 74.0° (Epoch: 18 September)

Event Time Altitude Azimuth Distance (km) Brightness Sun altitude
Rises 19:07:35 0° 194° (SSW) 3,259 7.0 -16.4°
Reaches altitude 10° 19:09:58 10° 194° (SSW) 2,333 6.3 -16.7°
Maximum altitude 19:15:16 83° 106° (ESE) 792 3.9 -17.5°
Drops below altitude 10° 19:20:35 10° 20° (NNE) 2,332 6.8 -18.3°
Sets 19:22:58 0° 20° (NNE) 3,258 7.5 -18.7°
